Malatya, Turkey

8:32 PM +03 on December 14, 2017 (GMT +0300)
Erhac Air Base

Weather History for LTAT - February, 2013

Change the Weather History Date:

Sunday, February 10, 2013

  Actual Average Record
Temperature  
Mean Temperature 42 °F -  
Max Temperature 51 °F 45 °F 60 °F (1997)
Min Temperature 33 °F 31 °F 8 °F (1998)
Degree Days  
Heating Degree Days 23    
Moisture  
Dew Point 38 °F    
Average Humidity 87    
Maximum Humidity 100    
Minimum Humidity 62    
Precipitation  
Precipitation 0.00 in 0.06 in - ()
Sea Level Pressure  
Sea Level Pressure 30.04 in    
Wind  
Wind Speed 3 mph ()    
Max Wind Speed 7 mph    
Max Gust Speed -    
Visibility 6.2 miles    
Events      
Averages and records for this station are not official NWS values.
T = Trace of Precipitation, MM = Missing Value Source: Averaged Metar Reports

Daily Weather History Graph

Daily Weather History Graph

Search for Another Location

Airport or City:

Trip Planner

Search our weather history database for the weather conditions in past years. The results will help you decide how hot, cold, wet, or windy it might be!

Date:

Astronomy

Feb. 10, 2013 Rise Set
Actual Time 6:24 AM EET 5:00 PM EET
Civil Twilight 5:56 AM EET 5:27 PM EET
Nautical Twilight 5:25 AM EET 5:58 PM EET
Astronomical Twilight 4:54 AM EET 6:29 PM EET
Moon 6:01 AM EET (2/10) 5:25 PM EET (2/10)
Length of Visible Light 11h 30m
Length of Day
10h 36m
New Moon, 0% of the Moon is Illuminated
Feb 10
New Moon
Feb 17
First Quarter
Feb 25
Full
Mar 4
Last Quarter
Mar 11
New

Hourly Weather History & Observations

Time (EET) Temp. Windchill Dew Point Humidity Pressure Visibility Wind Dir Wind Speed Gust Speed Precip Events Conditions
12:20 AM 39.2 °F 37.0 °F 37.4 °F 93% 30.09 in 6.2 mi North 3.5 mph - N/A   Mostly Cloudy
12:50 AM 39.2 °F - 39.2 °F 100% 30.09 in 6.2 mi Variable 1.2 mph - N/A   Mostly Cloudy
1:20 AM 39.2 °F 35.9 °F 37.4 °F 93% 30.09 in 6.2 mi NW 4.6 mph - N/A   Mostly Cloudy
1:50 AM 39.2 °F - 37.4 °F 93% 30.09 in 6.2 mi Variable 1.2 mph - N/A   Mostly Cloudy
2:20 AM 37.4 °F - 37.4 °F 100% 30.09 in 6.2 mi Variable 2.3 mph - N/A   Mostly Cloudy
2:50 AM 37.4 °F 32.8 °F 37.4 °F 100% 30.09 in 6.2 mi SSW 5.8 mph - N/A   Mostly Cloudy
3:20 AM 37.4 °F 32.8 °F 37.4 °F 100% 30.09 in 6.2 mi SW 5.8 mph - N/A   Mostly Cloudy
3:50 AM 35.6 °F 32.8 °F 35.6 °F 100% 30.09 in 6.2 mi WSW 3.5 mph - N/A   Mostly Cloudy
4:20 AM 37.4 °F - 37.4 °F 100% 30.09 in 6.2 mi Variable 1.2 mph - N/A   Mostly Cloudy
4:50 AM 37.4 °F - 37.4 °F 100% 30.09 in 6.2 mi Variable 2.3 mph - N/A   Mostly Cloudy
5:20 AM 35.6 °F 31.7 °F 35.6 °F 100% 30.09 in 6.2 mi SW 4.6 mph - N/A   Mostly Cloudy
5:50 AM 35.6 °F 31.7 °F 35.6 °F 100% 30.09 in 6.2 mi SSW 4.6 mph - N/A   Mostly Cloudy
6:20 AM 35.6 °F 32.8 °F 35.6 °F 100% 30.09 in 6.2 mi SW 3.5 mph - N/A   Mostly Cloudy
6:50 AM 35.6 °F 32.8 °F 35.6 °F 100% 30.09 in 6.2 mi NW 3.5 mph - N/A   Mostly Cloudy
7:20 AM 37.4 °F - 37.4 °F 100% 30.09 in 6.2 mi Variable 1.2 mph - N/A   Mostly Cloudy
7:50 AM 39.2 °F - 39.2 °F 100% 30.09 in 6.2 mi Variable 1.2 mph - N/A   Mostly Cloudy
8:20 AM 42.8 °F - 39.2 °F 87% 30.09 in 6.2 mi ENE 1.2 mph - N/A   Mostly Cloudy
8:50 AM 44.6 °F - 39.2 °F 81% 30.09 in 6.2 mi NE 2.3 mph - N/A   Mostly Cloudy
9:20 AM 44.6 °F - 39.2 °F 81% 30.09 in 6.2 mi NE 2.3 mph - N/A   Mostly Cloudy
9:50 AM 46.4 °F - 41.0 °F 81% 30.09 in 6.2 mi North 2.3 mph - N/A   Mostly Cloudy
10:20 AM 46.4 °F - 41.0 °F 81% 30.09 in 6.2 mi North 2.3 mph - N/A   Mostly Cloudy
10:50 AM 46.4 °F - 41.0 °F 81% 30.09 in 6.2 mi North 2.3 mph - N/A   Mostly Cloudy
11:20 AM 48.2 °F - 41.0 °F 76% 30.06 in 6.2 mi NNE 2.3 mph - N/A   Mostly Cloudy
11:50 AM 50.0 °F - 41.0 °F 71% 30.06 in 6.2 mi NNE 3.5 mph - N/A   Mostly Cloudy
12:20 PM 50.0 °F - 39.2 °F 66% 30.06 in 6.2 mi NNE 2.3 mph - N/A   Mostly Cloudy
12:50 PM 51.8 °F - 41.0 °F 67% 30.04 in 6.2 mi East 3.5 mph - N/A   Mostly Cloudy
1:20 PM 51.8 °F - 39.2 °F 62% 30.04 in 6.2 mi NNE 4.6 mph - N/A   Mostly Cloudy
1:50 PM 51.8 °F - 39.2 °F 62% 30.04 in 6.2 mi ENE 5.8 mph - N/A   Mostly Cloudy
2:20 PM 51.8 °F - 39.2 °F 62% 30.01 in 6.2 mi ENE 5.8 mph - N/A   Mostly Cloudy
2:50 PM 51.8 °F - 39.2 °F 62% 30.01 in 6.2 mi NNE 4.6 mph - N/A   Mostly Cloudy
3:20 PM 51.8 °F - 39.2 °F 62% 30.01 in 6.2 mi ENE 6.9 mph - N/A   Mostly Cloudy
3:50 PM 51.8 °F - 41.0 °F 67% 30.01 in 6.2 mi NE 4.6 mph - N/A   Mostly Cloudy
4:20 PM 50.0 °F - 41.0 °F 71% 29.98 in 6.2 mi ENE 3.5 mph - N/A   Mostly Cloudy
4:50 PM 50.0 °F - 41.0 °F 71% 29.98 in 6.2 mi NE 2.3 mph - N/A   Scattered Clouds
5:20 PM 48.2 °F - 41.0 °F 76% 29.98 in 6.2 mi Calm Calm - N/A   Mostly Cloudy
5:50 PM 44.6 °F 42.2 °F 41.0 °F 87% 29.98 in 6.2 mi West 4.6 mph - N/A   Mostly Cloudy
6:20 PM 41.0 °F 38.0 °F 37.4 °F 87% 29.98 in 6.2 mi WSW 4.6 mph - N/A   Mostly Cloudy
6:50 PM 39.2 °F 35.9 °F 37.4 °F 93% 29.98 in 6.2 mi WSW 4.6 mph - N/A   Mostly Cloudy
7:20 PM 39.2 °F 37.0 °F 37.4 °F 93% 29.98 in 6.2 mi SW 3.5 mph - N/A   Mostly Cloudy
7:50 PM 39.2 °F 34.2 °F 37.4 °F 93% 29.98 in 6.2 mi SSW 6.9 mph - N/A   Mostly Cloudy
8:20 PM 39.2 °F 34.2 °F 37.4 °F 93% 29.98 in 6.2 mi SW 6.9 mph - N/A   Mostly Cloudy
8:50 PM 37.4 °F 33.8 °F 37.4 °F 100% 29.98 in 6.2 mi SSW 4.6 mph - N/A   Mostly Cloudy
9:20 PM 37.4 °F 33.8 °F 37.4 °F 100% 29.98 in 6.2 mi SSW 4.6 mph - N/A   Mostly Cloudy
9:50 PM 35.6 °F 30.7 °F 35.6 °F 100% 29.98 in 6.2 mi SW 5.8 mph - N/A   Mostly Cloudy
10:20 PM 35.6 °F 30.7 °F 35.6 °F 100% 29.98 in 6.2 mi SW 5.8 mph - N/A   Mostly Cloudy
10:50 PM 37.4 °F - 35.6 °F 93% 29.95 in 6.2 mi WNW 2.3 mph - N/A   Mostly Cloudy
11:20 PM 33.8 °F - 33.8 °F 100% 29.95 in 6.2 mi Variable 2.3 mph - N/A   Mostly Cloudy
11:50 PM 33.8 °F - 33.8 °F 100% 29.95 in 6.2 mi SW 2.3 mph - N/A   Mostly Cloudy